CW6391 Weather Reports


Display with metric or nautical units.
time (UTC)temp
F
wind
direction
speed
MPH
gust
MPH
rain 1hr
in
rain 24hr
in
rain mn
in
humidity
%
barometer
mb
20260507011658 53 252 3.0 8.0 0.00 0.19 0.00 86 1007.2
20260507010658 53 262 2.0 6.0 0.01 0.19 0.00 87 1007.2
20260507010158 53 249 2.0 7.0 0.01 0.19 0.00 87 1007.2
20260507005701 53 263 4.0 7.0 0.01 0.19 0.00 87 1007.2
20260507005204 53 267 1.0 4.0 0.01 0.19 0.00 87 1007.2
20260507004658 53 215 1.0 6.0 0.01 0.19 0.00 87 1007.2
20260507004201 53 260 2.0 6.0 0.02 0.19 0.00 87 1007.2
20260507003658 53 252 1.0 5.0 0.02 0.19 0.00 87 1007.2
20260507003207 53 222 1.0 4.0 0.02 0.19 0.00 87 1007.2
20260507002658 53 313 1.0 4.0 0.02 0.19 0.00 87 1007.2
20260507002158 53 266 1.0 5.0 0.01 0.18 0.00 87 1007.2
20260507001658 54 237 1.0 5.0 0.01 0.18 0.00 87 1007.2
20260507001204 54 196 0.0 5.0 0.01 0.18 0.00 86 1007.2
20260507000658 54 251 2.0 6.0 0.00 0.18 0.00 86 1007.2
20260507000205 54 249 1.0 6.0 0.00 0.18 0.00 86 1006.9
20260506235658 54 247 2.0 6.0 0.00 0.18 0.00 85 1007.2
20260506235204 54 246 1.0 5.0 0.00 0.17 0.00 85 1007.2
20260506234658 54 272 1.0 5.0 0.00 0.17 0.00 85 1007.2
20260506234201 54 205 2.0 5.0 0.00 0.17 0.00 84 1007.2
20260506233658 54 188 2.0 5.0 0.00 0.17 0.00 84 1007.2
20260506233204 54 232 1.0 2.0 0.00 0.17 0.00 84 1007.2
20260506232658 54 251 0.0 5.0 0.00 0.17 0.00 84 1006.9
20260506232204 54 254 1.0 5.0 0.00 0.17 0.00 84 1006.9
20260506231701 54 268 1.0 4.0 0.00 0.17 0.00 84 1006.9
20260506231158 55 197 1.0 3.0 0.00 0.17 0.00 84 1006.9
20260506230704 55 255 0.0 5.0 0.00 0.17 0.00 84 1006.9
20260506230204 55 243 1.0 5.0 0.00 0.17 0.00 84 1006.9
20260506225701 55 229 1.0 4.0 0.00 0.17 0.00 84 1006.9
20260506225201 55 258 1.0 4.0 0.00 0.17 0.00 84 1006.9
20260506224658 55 263 1.0 4.0 0.00 0.17 0.00 85 1006.9
20260506224204 55 251 1.0 6.0 0.00 0.17 0.00 85 1006.9
20260506223704 55 186 1.0 4.0 0.00 0.17 0.00 85 1006.9
20260506223204 55 238 1.0 6.0 0.00 0.17 0.00 85 1006.6
20260506222658 55 251 0.0 5.0 0.00 0.17 0.00 85 1006.6
20260506222201 55 236 1.0 5.0 0.00 0.17 0.00 86 1006.6
20260506221704 55 190 2.0 5.0 0.00 0.17 0.00 85 1006.9
20260506221207 55 234 0.0 3.0 0.00 0.17 0.00 86 1006.9
20260506220704 55 257 0.0 4.0 0.00 0.17 0.00 85 1006.6
20260506220201 55 184 2.0 5.0 0.00 0.17 0.00 85 1006.6
20260506215701 55 174 1.0 8.0 0.00 0.17 0.00 85 1006.6
20260506215158 55 282 1.0 6.0 0.00 0.17 0.00 85 1006.6
20260506214658 55 215 1.0 2.0 0.00 0.17 0.00 85 1006.6
20260506214158 55 234 1.0 4.0 0.00 0.17 0.00 85 1006.6
20260506213701 55 200 2.0 4.0 0.00 0.17 0.00 85 1006.6
20260506213201 55 128 1.0 3.0 0.00 0.17 0.00 85 1006.6
20260506212704 55 164 1.0 3.0 0.00 0.17 0.00 85 1006.9
20260506212158 55 185 2.0 3.0 0.00 0.17 0.00 85 1006.6
20260506211701 55 155 1.0 3.0 0.01 0.17 0.00 85 1006.6
20260506211158 55 143 1.0 2.0 0.01 0.17 0.00 85 1006.6
20260506210701 55 206 1.0 3.0 0.02 0.17 0.00 85 1006.2
20260506210204 55 204 1.0 4.0 0.02 0.17 0.00 85 1006.2
20260506205658 55 180 1.0 4.0 0.03 0.17 0.00 85 1006.2
20260506205201 55 209 1.0 3.0 0.03 0.17 0.00 86 1006.2
20260506204701 55 190 1.0 4.0 0.03 0.17 0.00 86 1006.2
20260506204158 55 184 2.0 4.0 0.03 0.17 0.00 85 1006.2
20260506203658 55 234 0.0 3.0 0.03 0.17 0.00 86 1006.2
20260506203158 55 235 1.0 3.0 0.03 0.17 0.00 86 1006.2
20260506202701 55 353 0.0 4.0 0.02 0.16 0.00 86 1006.2
20260506202201 55 186 2.0 4.0 0.02 0.16 0.00 85 1006.2
20260506201658 55 199 0.0 5.0 0.01 0.15 0.00 85 1006.2
20260506201201 55 194 1.0 5.0 0.01 0.15 0.00 85 1006.2
20260506200704 55 199 1.0 3.0 0.01 0.14 0.00 85 1006.2
20260506200201 55 278 1.0 2.0 0.00 0.14 0.00 84 1006.2
20260506195658 55 264 1.0 3.0 0.00 0.14 0.00 84 1006.2
20260506195201 55 186 1.0 5.0 0.00 0.13 0.00 83 1005.8
20260506194658 56 151 1.0 5.0 0.00 0.13 0.00 83 1005.8
20260506194201 56 173 2.0 3.0 0.00 0.13 0.00 82 1005.8
20260506193701 56 250 1.0 3.0 0.00 0.13 0.00 83 1005.8
20260506193158 56 279 0.0 3.0 0.00 0.13 0.00 83 1005.5
20260506192701 56 308 0.0 3.0 0.00 0.13 0.00 84 1005.5
20260506192158 56 218 1.0 5.0 0.00 0.13 0.00 84 1005.5
20260506191658 56 194 3.0 6.0 0.00 0.13 0.00 85 1005.5
20260506191201 56 181 2.0 4.0 0.00 0.13 0.00 85 1005.5
20260506190704 56 152 1.0 4.0 0.00 0.13 0.00 85 1005.1
20260506190204 57 184 2.0 4.0 0.00 0.13 0.00 85 1005.1
20260506185701 57 179 3.0 4.0 0.00 0.13 0.00 85 1005.1
20260506185158 57 207 1.0 2.0 0.00 0.13 0.00 86 1005.1
20260506184658 57 146 1.0 2.0 0.00 0.13 0.00 86 1004.8
20260506184201 57 288 0.0 3.0 0.00 0.13 0.00 85 1004.8
20260506183704 57 297 1.0 3.0 0.00 0.13 0.00 85 1004.5
20260506183204 57 309 1.0 2.0 0.00 0.13 0.00 84 1004.5
20260506182658 57 292 1.0 2.0 0.00 0.13 0.00 84 1004.5
20260506182204 57 210 1.0 2.0 0.00 0.13 0.00 84 1004.5
20260506181707 57 189 1.0 2.0 0.00 0.13 0.00 84 1004.5
20260506181158 57 272 1.0 2.0 0.00 0.13 0.00 84 1004.5
20260506180701 58 252 0.0 1.0 0.01 0.13 0.00 85 1004.5
20260506180158 58 195 0.0 3.0 0.01 0.13 0.00 85 1004.5
20260506175701 58 281 1.0 5.0 0.02 0.13 0.00 85 1004.5
20260506175158 58 289 0.0 4.0 0.02 0.13 0.00 85 1004.5
20260506174704 58 318 1.0 3.0 0.03 0.14 0.00 85 1004.5
20260506174201 58 271 0.0 2.0 0.05 0.14 0.00 85 1004.5
20260506173658 58 260 0.0 1.0 0.06 0.14 0.00 84 1004.5
20260506173158 59 197 0.0 1.0 0.06 0.16 0.00 85 1004.5
20260506172658 58 232 0.0 1.0 0.06 0.17 0.00 85 1004.1
20260506172201 59 246 0.0 1.0 0.08 0.18 0.00 85 1004.1
20260506171658 58 19 0.0 2.0 0.10 0.20 0.00 84 1004.1
20260506171158 58 309 1.0 2.0 0.11 0.21 0.00 83 1004.1
20260506170701 59 241 0.0 2.0 0.10 0.26 0.00 83 1004.1
20260506170201 59 255 0.0 9.0 0.10 0.31 0.00 82 1004.5
20260506165701 59 235 3.0 9.0 0.10 0.34 0.00 80 1004.5
20260506165158 60 269 1.0 5.0 0.10 0.34 0.00 80 1004.5
20260506164701 60 253 1.0 4.0 0.09 0.33 0.00 78 1004.5
20260506164201 61 257 1.0 2.0 0.08 0.32 0.00 77 1004.5
20260506163701 61 263 1.0 4.0 0.07 0.30 0.00 76 1004.5
20260506163158 61 200 1.0 4.0 0.07 0.30 0.00 71 1004.5
20260506162701 62 182 2.0 3.0 0.06 0.30 0.00 70 1004.5
20260506162158 62 191 1.0 2.0 0.05 0.28 0.00 68 1004.5
20260506161704 63 132 1.0 2.0 0.03 0.26 0.00 67 1004.5
20260506161158 64 128 1.0 3.0 0.02 0.25 0.00 64 1004.5
20260506160658 64 139 1.0 2.0 0.01 0.25 0.00 63 1004.1
20260506160201 65 206 1.0 1.0 0.01 0.24 0.00 58 1004.1
20260506155701 65 172 0.0 1.0 0.00 0.24 0.00 60 1004.1
20260506155201 66 341 0.0 2.0 0.00 0.24 0.00 58 1004.1
20260506154701 66 270 0.0 2.0 0.00 0.23 0.00 59 1004.1
20260506154158 67 305 0.0 3.0 0.00 0.23 0.00 53 1004.1
20260506153658 67 216 0.0 4.0 0.00 0.23 0.00 52 1004.1
20260506153158 67 278 1.0 4.0 0.00 0.23 0.00 49 1004.1
20260506152701 67 283 2.0 5.0 0.00 0.23 0.00 48 1004.1
20260506152204 67 320 2.0 4.0 0.00 0.23 0.00 48 1004.1
20260506151704 67 323 2.0 5.0 0.00 0.23 0.00 47 1004.1
20260506151158 67 322 2.0 4.0 0.00 0.23 0.00 47 1004.1
20260506150704 67 308 1.0 4.0 0.00 0.23 0.00 48 1004.1
20260506150204 67 282 1.0 5.0 0.00 0.23 0.00 47 1004.1
20260506145658 67 281 1.0 4.0 0.00 0.23 0.00 48 1004.1
20260506145201 67 275 0.0 5.0 0.00 0.23 0.00 49 1004.1
20260506144658 67 316 2.0 5.0 0.00 0.23 0.00 48 1004.1
20260506144158 67 239 2.0 5.0 0.00 0.23 0.00 48 1004.1
20260506143658 67 315 2.0 7.0 0.00 0.23 0.00 49 1004.1
20260506143158 67 305 3.0 5.0 0.00 0.23 0.00 48 1004.1
20260506142658 67 305 1.0 5.0 0.00 0.23 0.00 48 1004.1
20260506142158 67 290 2.0 6.0 0.00 0.23 0.00 47 1004.1
20260506141658 69 298 1.0 5.0 0.00 0.23 0.00 46 1004.5
20260506141158 69 299 1.0 4.0 0.00 0.23 0.00 46 1004.5
20260506140704 68 306 2.0 5.0 0.00 0.23 0.00 47 1004.5
20260506140207 68 311 2.0 6.0 0.00 0.23 0.00 47 1004.5
20260506135701 68 280 1.0 5.0 0.00 0.23 0.00 45 1004.5
20260506135201 69 295 1.0 4.0 0.00 0.23 0.00 44 1004.5
20260506134707 69 230 1.0 5.0 0.00 0.23 0.00 46 1004.5
20260506134158 68 153 3.0 5.0 0.00 0.23 0.00 45 1004.5
20260506133658 68 219 1.0 6.0 0.00 0.23 0.00 46 1004.5
20260506133158 69 111 1.0 4.0 0.00 0.23 0.00 45 1004.5
20260506132658 69 174 2.0 5.0 0.00 0.23 0.00 45 1004.8
20260506132201 69 171 2.0 5.0 0.00 0.23 0.00 46 1004.8
20260506131701 68 277 0.0 4.0 0.00 0.23 0.00 47 1004.8
20260506131158 67 314 2.0 4.0 0.00 0.23 0.00 47 1004.8
20260506130701 67 166 1.0 6.0 0.00 0.23 0.00 48 1004.8
20260506130201 67 222 0.0 4.0 0.00 0.23 0.00 48 1004.8
20260506125701 68 191 3.0 4.0 0.00 0.23 0.00 46 1004.8
20260506125158 68 315 1.0 3.0 0.00 0.23 0.00 47 1004.8
20260506124658 67 266 1.0 6.0 0.00 0.23 0.00 48 1005.1
20260506124158 66 124 2.0 7.0 0.00 0.23 0.00 49 1005.1
20260506123701 66 172 3.0 8.0 0.00 0.23 0.00 49 1005.1
20260506123207 68 178 4.0 8.0 0.00 0.23 0.00 45 1005.1
20260506122658 69 93 0.0 4.0 0.00 0.23 0.00 45 1005.1
20260506122158 69 219 1.0 3.0 0.00 0.23 0.00 45 1005.1
20260506121701 69 318 2.0 5.0 0.00 0.23 0.00 43 1005.1
20260506121204 69 172 1.0 4.0 0.00 0.23 0.00 45 1005.1
20260506120701 68 296 1.0 7.0 0.00 0.23 0.00 46 1005.1
20260506120201 68 128 3.0 6.0 0.00 0.23 0.00 45 1005.1
20260506115704 68 155 2.0 4.0 0.00 0.23 0.00 46 1005.1
20260506115158 67 191 1.0 5.0 0.00 0.23 0.00 48 1005.1
20260506114658 68 198 0.0 2.0 0.00 0.23 0.00 49 1005.1
20260506114201 67 242 1.0 4.0 0.00 0.23 0.00 49 1005.1
20260506113701 67 294 1.0 6.0 0.00 0.23 0.00 49 1005.1
20260506113204 67 288 2.0 6.0 0.00 0.23 0.00 48 1005.1
20260506112658 67 235 1.0 5.0 0.00 0.23 0.00 47 1005.1
20260506112158 67 284 1.0 6.0 0.00 0.23 0.00 48 1005.5
20260506111658 68 272 1.0 7.0 0.00 0.23 0.00 47 1005.5
20260506111158 69 239 2.0 5.0 0.00 0.23 0.00 45 1005.5
20260506110701 68 290 2.0 7.0 0.00 0.23 0.00 44 1005.5
20260506110158 69 180 2.0 6.0 0.00 0.23 0.00 45 1005.5
20260506105658 68 245 1.0 4.0 0.00 0.23 0.00 47 1005.5
20260506105204 68 267 1.0 3.0 0.00 0.23 0.00 48 1005.5
20260506104658 67 229 1.0 8.0 0.00 0.23 0.00 48 1005.5
20260506104201 68 221 2.0 6.0 0.00 0.23 0.00 49 1005.8
20260506103704 67 231 3.0 6.0 0.00 0.23 0.00 48 1005.8
20260506103158 66 230 1.0 6.0 0.00 0.23 0.00 51 1005.8
20260506102658 67 185 2.0 8.0 0.00 0.23 0.00 49 1005.8
20260506102158 66 168 4.0 8.0 0.00 0.23 0.00 49 1005.8
20260506101658 66 204 1.0 7.0 0.00 0.23 0.00 52 1005.8
20260506101204 64 222 1.0 9.0 0.00 0.23 0.00 55 1005.8
20260506100701 64 250 3.0 10.0 0.00 0.23 0.00 54 1005.8
20260506100158 64 243 1.0 7.0 0.00 0.23 0.00 55 1005.8
20260506095707 64 302 4.0 8.0 0.00 0.23 0.00 55 1005.8
20260506095158 64 261 1.0 7.0 0.00 0.23 0.00 58 1005.8
20260506094701 63 282 2.0 9.0 0.00 0.23 0.00 57 1005.8
20260506094158 64 293 3.0 9.0 0.00 0.23 0.00 56 1005.8
20260506093658 63 253 2.0 8.0 0.00 0.23 0.00 57 1005.8
20260506093201 63 254 2.0 8.0 0.00 0.23 0.00 58 1005.8
20260506092658 63 271 4.0 9.0 0.00 0.23 0.00 57 1005.8
20260506092201 63 280 4.0 7.0 0.00 0.23 0.00 56 1005.8
20260506091704 63 258 3.0 7.0 0.00 0.23 0.00 57 1005.8
20260506091158 63 260 3.0 8.0 0.00 0.23 0.00 56 1005.8
20260506090658 63 229 1.0 8.0 0.00 0.23 0.00 56 1005.8
20260506090158 64 252 2.0 7.0 0.00 0.23 0.00 54 1005.8
20260506085701 64 237 2.0 7.0 0.00 0.23 0.00 56 1005.8
20260506085158 63 241 2.0 7.0 0.00 0.23 0.00 57 1005.8
20260506084658 62 271 4.0 8.0 0.00 0.23 0.00 58 1005.8
20260506084158 63 281 2.0 8.0 0.00 0.23 0.00 59 1005.8
20260506083701 63 238 1.0 7.0 0.00 0.23 0.00 60 1005.8
20260506083158 62 256 2.0 7.0 0.00 0.23 0.00 62 1005.8
20260506082658 61 267 2.0 7.0 0.00 0.23 0.00 63 1005.8
20260506082204 61 264 1.0 7.0 0.00 0.23 0.00 62 1005.8
20260506081658 61 180 2.0 7.0 0.00 0.23 0.00 61 1005.8
20260506081158 62 301 1.0 9.0 0.00 0.23 0.00 61 1005.8
20260506080704 61 180 5.0 9.0 0.00 0.23 0.00 62 1005.8
20260506080158 62 199 2.0 7.0 0.00 0.23 0.00 61 1005.5
20260506073158 59 235 2.0 7.0 0.00 0.23 0.00 69 1005.5
20260506072658 59 239 3.0 6.0 0.00 0.23 0.00 69 1005.5
20260506072158 59 251 3.0 7.0 0.00 0.23 0.00 69 1005.5
20260506071658 59 219 1.0 6.0 0.00 0.23 0.00 71 1005.1
20260506071158 58 309 2.0 9.0 0.00 0.23 0.00 70 1005.5
20260506070701 58 232 2.0 9.0 0.00 0.23 0.00 71 1005.1
20260506070158 58 279 1.0 4.0 0.00 0.23 0.00 72 1005.1
20260506062158 57 244 1.0 4.0 0.00 0.23 0.00 76 1005.5
20260506061701 56 256 2.0 5.0 0.00 0.23 0.00 76 1005.5
20260506061158 56 245 3.0 7.0 0.00 0.23 0.00 76 1005.5
20260506060701 56 276 3.0 7.0 0.00 0.23 0.00 76 1005.5
20260506060201 56 271 0.0 5.0 0.00 0.23 0.00 76 1005.5
20260506051158 55 237 0.0 5.0 0.00 0.23 0.00 81 1005.8
20260506050701 55 263 1.0 5.0 0.00 0.23 0.00 81 1005.8
20260506050201 55 289 0.0 6.0 0.00 0.23 0.00 81 1005.8
20260506044658 55 277 1.0 3.0 0.00 0.23 0.00 81 1005.8
20260506044158 55 256 1.0 3.0 0.00 0.23 0.00 81 1005.5
20260506043658 55 261 0.0 4.0 0.00 0.23 0.00 81 1005.5
20260506043158 55 199 0.0 4.0 0.00 0.23 0.00 81 1005.5
20260506042658 55 238 2.0 5.0 0.00 0.23 0.00 81 1005.5
20260506042204 55 223 1.0 7.0 0.00 0.23 0.00 82 1005.5
20260506041701 55 233 1.0 4.0 0.00 0.23 0.00 82 1005.5
20260506041204 55 242 2.0 4.0 0.00 0.23 0.00 82 1005.5
20260506040658 55 259 1.0 4.0 0.00 0.23 0.00 82 1005.5
20260506040158 55 250 0.0 5.0 0.00 0.23 0.00 82 1005.5
20260506035658 55 286 0.0 6.0 0.00 0.23 0.00 82 1005.1
20260506035204 55 224 1.0 7.0 0.00 0.23 0.00 82 1005.1
20260506034658 55 249 2.0 7.0 0.00 0.23 0.00 82 1005.1
20260506034158 55 246 2.0 5.0 0.00 0.23 0.00 82 1005.5
20260506033701 55 235 1.0 7.0 0.00 0.23 0.00 82 1005.5
20260506033204 55 239 1.0 7.0 0.00 0.23 0.00 82 1005.5
20260506032704 55 244 2.0 4.0 0.00 0.23 0.00 82 1005.1
20260506032158 55 299 1.0 3.0 0.00 0.23 0.00 83 1005.1
20260506031658 55 262 1.0 4.0 0.00 0.23 0.00 83 1005.1
20260506031158 55 180 1.0 5.0 0.00 0.23 0.00 83 1005.1
20260506030701 55 204 1.0 4.0 0.00 0.23 0.00 83 1005.5
20260506030204 55 253 0.0 3.0 0.00 0.23 0.00 83 1005.5
20260506025658 55 249 1.0 4.0 0.00 0.23 0.00 83 1005.5
20260506025158 55 208 1.0 2.0 0.00 0.23 0.00 83 1005.5
20260506024701 55 245 1.0 4.0 0.00 0.23 0.00 83 1005.5
20260506024158 55 258 2.0 4.0 0.00 0.23 0.00 83 1005.1
20260506023658 55 315 0.0 3.0 0.00 0.23 0.00 84 1005.1
20260506023158 55 304 0.0 2.0 0.00 0.23 0.00 84 1005.5
20260506022701 55 191 0.0 2.0 0.00 0.23 0.00 84 1005.5
20260506022201 55 200 0.0 4.0 0.00 0.23 0.00 84 1005.5
20260506021658 55 196 0.0 2.0 0.00 0.23 0.00 84 1005.5
20260506021201 55 289 0.0 2.0 0.00 0.23 0.00 84 1005.5
20260506020658 55 187 0.0 4.0 0.00 0.23 0.00 84 1005.1
20260506020158 55 230 1.0 7.0 0.00 0.23 0.00 84 1005.5
20260506015701 55 191 3.0 7.0 0.00 0.23 0.00 84 1005.1
20260506015158 55 194 1.0 4.0 0.00 0.23 0.00 84 1005.5
20260506014701 55 187 2.0 6.0 0.00 0.23 0.00 84 1005.5
20260506014201 55 192 1.0 5.0 0.00 0.23 0.00 84 1005.5
20260506013658 55 201 0.0 2.0 0.00 0.23 0.00 84 1005.5
20260506013158 55 250 0.0 4.0 0.00 0.23 0.00 84 1005.5
20260506012658 55 211 0.0 3.0 0.00 0.23 0.00 84 1005.5
20260506012158 55 212 1.0 3.0 0.00 0.23 0.00 84 1005.5